Vertical_Velocity
-3 0 -3 -1 -4 -3 -1 1 3 5 3 0 -1 4 1 1 5 3 4 3 -2 -3 -4 -4 4 -1 3 1 1 0 -1 0 0 -0 0 0 -1 0
-1 -2 -1 1 0 -3 -3 -4 -2 4 5 12 6 4 6 -3 1 -6 -0 -2 -1 2 -2 11 14 2 3 4 1 2 -0 -2 -0 1 1 0 -0 0
-4 -4 -4 -4 -1 1 -5 -1 -1 -5 3 10 15 -8 -4 -2 3 -2 3 1 3 -5 -1 -7 3 1 12 1 2 4 2 1 -0 0 -0 -0 -1 1
-5 -3 -4 -6 -5 -6 -4 -5 -0 -3 11 28 -9 -8 -3 2 2 -0 1 -3 -3 -1 4 5 -0 14 35 14 3 1 3 2 -0 -0 -0 0 1 0
-3 -2 -4 -5 -7 -7 -14 5 3 2 5 15 1 8 -3 3 -0 1 0 -2 -1 2 20 10 27 -4 14 30 -1 5 2 4 1 -2 1 0 2 3
-2 -3 -2 -3 -1 -6 9 13 0 -0 4 0 4 2 9 7 2 -0 2 -0 -1 1 -3 -2 0 3 5 11 7 -5 5 6 6 0 0 -0 1 2
-5 -5 -2 -2 0 -5 -3 13 13 2 4 0 2 4 2 -1 1 2 0 -3 -1 -1 2 -6 -1 7 1 -8 -2 4 18 1 2 0 -0 3 1 1
-2 -3 -4 1 1 0 -1 7 14 28 3 0 -3 3 -1 -0 -3 -5 -5 -4 -10 3 0 -3 -4 2 -0 1 -0 0 -2 67 -2 6 2 -1 2 3
-1 0 1 -2 -1 1 0 -3 2 17 25 10 2 5 2 7 16 10 5 2 -1 -5 -3 -1 -1 2 -2 -1 -0 8 -5 33 37 19 6 3 -3 -2
-3 -3 -1 1 4 2 4 -1 -1 7 1 4 12 16 -4 -4 4 4 -0 -0 -2 -0 -4 -5 1 -0 -1 1 2 -5 -2 3 20 20 10 -0 2 -1
0 -2 -3 -3 -1 3 2 8 1 4 1 0 1 4 2 2 -1 -1 -0 -2 -3 0 -1 -1 -1 -3 -6 -1 3 -2 4 -1 9 16 -1 0 2 1
2 3 -1 -2 -3 -4 2 2 4 6 1 0 -1 1 1 1 -2 -1 -3 -1 -3 -0 -2 -2 2 3 5 -2 -2 2 -6 8 1 1 7 8 8 -2
1 0 3 -0 -0 1 -0 -1 -0 0 2 5 3 4 3 0 -0 0 -0 1 1 -1 -0 1 1 -0 -0 -5 -7 1 5 -2 -4 -6 20 38 9 10
-0 -4 -1 -0 3 0 -1 2 1 2 -1 1 4 5 5 1 1 1 0 1 -0 1 -1 -1 -1 -1 -0 -4 -7 -8 3 8 5 0 24 30 10 12
-2 0 -0 -0 -0 -0 2 -2 2 2 4 3 2 1 3 5 3 3 1 -1 1 2 2 1 -0 -1 -4 5 3 -0 -2 -7 0 11 6 14 6 10
-1 -0 -2 0 2 -0 1 -1 -1 1 -2 2 1 4 3 2 -1 -1 1 2 2 5 5 1 2 -1 -2 -2 -5 0 4 2 8 8 8 5 12 18
-0 -1 -0 -1 -2 -0 -0 1 -0 1 -0 0 -0 0 -1 1 1 3 3 0 0 4 2 1 3 3 5 5 3 4 5 6 4 6 2 4 7 6
0 1 1 -0 -1 0 2 -2 -3 -1 -1 -1 2 -0 -1 -0 -0 -2 -2 -1 -0 3 2 1 -2 -0 -2 -5 3 1 2 -2 0 3 5 -3 -3 -1
-1 -1 -0 1 -0 -0 1 1 1 1 -1 -1 -1 -3 -0 -1 0 -0 -2 -3 -3 -1 0 1 -0 -1 1 3 -3 0 -4 -2 0 -0 3 6 -2 -4
1 -1 -1 -1 -2 -1 -1 -1 1 8 3 -1 -3 -4 -1 -1 -0 -0 -1 -2 -2 -3 -2 -0 1 3 1 -2 -5 -4 4 0 1 1 -3 -0 1 -7
-1 1 1 -2 -3 -1 -1 -0 -3 -1 4 1 2 3 2 1 -0 -0 -1 -1 -1 -3 -4 -4 -2 -0 0 2 7 -6 -10 -6 -0 4 2 4 -1 0
1 -0 -1 0 -2 -1 -2 -2 -3 -2 2 -1 -5 -3 -1 -1 -0 -1 1 0 -1 -0 -2 -3 -4 -5 -5 -0 1 4 -3 -5 -1 -1 3 -3 -2 5
-4 -3 -1 -2 -3 -2 -4 -3 -2 -2 0 -3 -3 -2 -1 -1 -4 -2 -3 -2 0 -0 2 -1 -4 -4 -3 -2 -2 -0 2 -1 -2 -9 -9 -1 3 2
Height
5553 5552 5551 5550 5550 5551 5553 5556 5561 5568 5574 5578 5585 5590 5596 5601 5609 5615 5623 5629 5637 5646 5651 5658 5662 5669 5673 5676 5682 5687 5692 5696 5701 5705 5709 5712 5715 5718
5543 5541 5540 5539 5538 5539 5541 5543 5547 5553 5562 5566 5571 5574 5578 5584 5593 5601 5608 5616 5624 5631 5638 5644 5650 5654 5659 5665 5670 5674 5680 5685 5689 5694 5698 5702 5705 5709
5534 5531 5529 5526 5525 5525 5524 5527 5532 5538 5547 5553 5555 5558 5565 5573 5580 5588 5597 5603 5611 5618 5625 5628 5634 5639 5643 5649 5656 5661 5667 5673 5678 5682 5687 5691 5695 5699
5524 5521 5518 5514 5512 5509 5506 5507 5513 5521 5529 5535 5541 5549 5556 5562 5568 5573 5581 5589 5599 5603 5609 5608 5619 5622 5624 5631 5639 5648 5653 5658 5665 5670 5675 5680 5683 5687
5515 5511 5508 5504 5501 5498 5491 5488 5497 5505 5513 5520 5528 5538 5545 5550 5554 5560 5567 5575 5584 5590 5592 5596 5600 5607 5612 5619 5627 5632 5640 5645 5650 5656 5663 5668 5672 5675
5507 5503 5499 5495 5493 5491 5487 5486 5489 5496 5502 5508 5517 5525 5535 5537 5543 5550 5556 5562 5569 5575 5582 5587 5592 5598 5605 5608 5615 5620 5624 5632 5636 5642 5648 5654 5659 5663
5499 5496 5493 5489 5487 5486 5483 5482 5484 5487 5494 5500 5507 5514 5522 5528 5533 5539 5544 5550 5556 5561 5567 5572 5579 5584 5589 5594 5599 5604 5610 5615 5620 5626 5632 5639 5644 5649
5494 5491 5488 5484 5481 5479 5480 5478 5479 5481 5486 5493 5499 5505 5512 5518 5523 5528 5532 5537 5542 5549 5553 5559 5563 5568 5574 5579 5583 5589 5594 5597 5602 5606 5615 5622 5629 5635
5490 5487 5483 5479 5476 5473 5473 5473 5473 5474 5479 5485 5490 5496 5503 5507 5512 5516 5520 5524 5527 5533 5538 5545 5549 5554 5558 5563 5567 5572 5577 5583 5586 5592 5599 5604 5611 5618
5484 5482 5479 5475 5470 5468 5467 5467 5468 5466 5469 5475 5480 5485 5491 5496 5500 5504 5508 5512 5515 5518 5523 5529 5534 5539 5543 5549 5553 5558 5561 5567 5572 5575 5580 5586 5593 5600
5479 5476 5473 5470 5466 5465 5461 5461 5462 5463 5464 5468 5471 5475 5480 5484 5488 5493 5496 5499 5503 5506 5511 5515 5521 5524 5527 5533 5537 5541 5547 5551 5556 5559 5562 5569 5576 5582
5473 5471 5468 5466 5463 5461 5459 5456 5456 5457 5457 5459 5462 5465 5468 5471 5475 5478 5482 5486 5490 5494 5497 5502 5506 5510 5514 5516 5521 5525 5529 5534 5538 5541 5543 5549 5560 5563
5464 5464 5462 5460 5457 5457 5456 5454 5452 5451 5451 5452 5453 5456 5457 5459 5462 5466 5470 5473 5477 5481 5484 5487 5491 5494 5497 5500 5502 5509 5514 5518 5522 5524 5529 5535 5543 5548
5455 5454 5453 5453 5451 5449 5448 5449 5448 5447 5446 5445 5445 5447 5449 5450 5451 5454 5457 5460 5465 5468 5471 5473 5476 5479 5482 5484 5490 5492 5496 5502 5505 5510 5515 5520 5526 5531
5447 5445 5443 5442 5442 5442 5441 5440 5441 5441 5441 5441 5440 5440 5441 5442 5443 5444 5446 5447 5450 5453 5456 5459 5462 5465 5469 5471 5475 5479 5482 5487 5492 5495 5499 5505 5509 5513
5439 5436 5434 5432 5432 5431 5431 5431 5431 5432 5432 5432 5432 5433 5433 5434 5435 5436 5437 5438 5439 5441 5442 5444 5446 5450 5453 5456 5459 5463 5466 5471 5474 5476 5481 5486 5488 5492
5430 5427 5425 5423 5421 5421 5421 5420 5421 5421 5422 5422 5422 5423 5423 5424 5425 5427 5428 5429 5431 5431 5431 5432 5434 5436 5437 5440 5443 5446 5449 5452 5454 5458 5461 5465 5469 5475
5421 5419 5417 5414 5413 5411 5409 5409 5409 5409 5409 5410 5411 5411 5412 5413 5413 5414 5415 5417 5419 5420 5421 5422 5422 5423 5425 5425 5427 5429 5431 5433 5437 5439 5442 5444 5449 5455
5412 5409 5407 5405 5402 5401 5400 5399 5398 5397 5396 5396 5397 5397 5398 5399 5400 5400 5401 5402 5403 5404 5406 5408 5409 5409 5411 5413 5414 5415 5417 5420 5423 5424 5426 5429 5429 5434
5402 5399 5396 5394 5392 5390 5388 5387 5387 5386 5383 5382 5381 5381 5382 5383 5383 5384 5384 5385 5385 5386 5388 5390 5392 5394 5395 5396 5396 5398 5402 5405 5407 5408 5411 5414 5416 5419
5390 5387 5384 5381 5379 5377 5376 5374 5373 5372 5370 5368 5367 5366 5366 5366 5366 5366 5366 5367 5367 5368 5369 5370 5371 5373 5376 5380 5382 5380 5381 5385 5390 5393 5394 5396 5398 5401
5378 5375 5372 5368 5365 5363 5360 5358 5356 5355 5354 5351 5350 5350 5348 5346 5346 5346 5347 5347 5348 5348 5348 5349 5350 5351 5354 5357 5360 5362 5362 5363 5366 5370 5373 5375 5379 5381
5364 5361 5357 5353 5350 5347 5344 5341 5338 5336 5334 5331 5331 5330 5329 5327 5325 5325 5324 5324 5324 5325 5326 5326 5326 5328 5330 5332 5334 5335 5338 5341 5343 5345 5346 5350 5356 5357